Location: Schommer Observatory
(40.5200°N, 74.4500°W)
Time: 03:43:42
(UTC-04:00)

ISS - Pass Details

Date: 22 May 2018
Orbit: 402 x 407 km, 51.6° (Epoch: 27 May)

Event Time Altitude Azimuth Distance (km) Brightness Sun altitude
Rises 04:53:52 0° 295° (WNW) 2,316 -0.3 -7.5°
Reaches altitude 10° 04:56:14 10° 279° (W) 1,453 -1.4 -7.2°
Maximum altitude 04:58:48 22° 227° (SW) 940 -2.6 -6.8°
Drops below altitude 10° 05:01:23 10° 174° (S) 1,446 -1.3 -6.4°
Sets 05:03:44 0° 159° (SSE) 2,301 -0.1 -6.0°
